Location: Azat
(46.0765°N, 1.7600°E)
Time: 18:18:46
(UTC+00:00)

Cosmos 1703 - Pass Details

Date: 09 April 2020
Orbit: 524 x 541 km, 82.5° (Epoch: 31 May)

Event Time Altitude Azimuth Distance (km) Brightness Sun altitude
Rises 18:59:43 0° 355° (N) 2,707 7.2 -5.4°
Reaches altitude 10° 19:01:56 10° 1° (N) 1,812 6.2 -5.7°
Maximum altitude 19:05:49 51° 78° (ENE) 692 3.5 -6.4°
Drops below altitude 10° 19:09:41 10° 155° (SSE) 1,800 5.5 -7.0°
Sets 19:11:53 0° 160° (SSE) 2,687 6.5 -7.4°
